Regional Weather Roundup
Issued by NWS Wilmington, NC

Home | Current Version | Previous Version | Text Only | Print | Product List | Glossary On
Versions: 1 2 3 4 5 6 7 8 9 10 11 12 13 14 15 16 17 18 19 20 21 22 23 24 25 26 27
000
ASUS42 KILM 241610
RWRILM
RWRILM
REGIONAL HOURLY WEATHER ROUNDUP
NATIONAL WEATHER SERVICE WILMINGTON NC
1200 PM EDT FRI OCT 24 2014

NOTE: "FAIR" INDICATES FEW OR NO CLOUDS BELOW 12,000 FEET WITH NO
SIGNIFICANT WEATHER AND/OR OBSTRUCTIONS TO VISIBILITY.

...............WFO WILMINGTON COUNTY WARNING AREA...............

......COASTAL NC AND SC COUNTIES......

CITY           SKY/WX    TMP DP  RH WIND       PRES   REMARKS
WILMINGTON     PTSUNNY   65  48  54 VRB5      30.05S
SOUTHPORT      MOSUNNY   65  47  53 E6        30.06S
N MYRTLE BEACH MOSUNNY   65  47  52 NE5       30.06R
MYRTLE BEACH   PTSUNNY   63  45  51 N7        30.06F

......INLAND NC AND SC COUNTIES.......

CITY           SKY/WX    TMP DP  RH WIND       PRES   REMARKS
LUMBERTON      SUNNY     65  45  48 NW3       30.06S
ELIZABETHTOWN  MOSUNNY   62  46  57 CALM      30.06S
WHITEVILLE     MOSUNNY   62  46  55 E3        30.06S
FLORENCE       MOSUNNY   64  45  49 E6        30.06F
DARLINGTON     MOSUNNY   64  45  48 N5        30.08F

....................REST OF NORTH CAROLINA......................

.........EASTERN NC.........

CITY           SKY/WX    TMP DP  RH WIND       PRES   REMARKS
CAPE HATTERAS  CLOUDY    62  50  64 NW9       30.00S
JACKSONVILLE   MOSUNNY   63  45  51 CALM      30.05F
MOREHEAD CITY  MOSUNNY   65  46  50 N8        30.03F
KENANSVILLE    MOSUNNY   63  45  51 CALM      30.05F
NEW BERN       MOSUNNY   67  45  45 VRB5      30.04F
ELIZABETH CITY MOSUNNY   67  48  50 N13G18    29.99R

.........CENTRAL NC.........

CITY           SKY/WX    TMP DP  RH WIND       PRES   REMARKS
RALEIGH DURHAM MOSUNNY   63  44  50 CALM      30.05F
ROCKY MOUNT    MOSUNNY   65  46  50 VRB3      30.04F
ROANOKE RAPIDS NOT AVBL
FAYETTEVILLE   MOSUNNY   65  44  46 VRB3      30.05F
HOFFMAN        MOSUNNY   63  46  53 VRB2      30.07F

.........WESTERN NC.........

CITY           SKY/WX    TMP DP  RH WIND       PRES   REMARKS
CHARLOTTE      PTSUNNY   64  40  41 VRB3      30.09S
GREENSBORO     PTSUNNY   63  40  42 N3        30.06S
HICKORY        NOT AVBL
BOONE          NOT AVBL
ASHEVILLE      NOT AVBL

.....................REST OF SOUTH CAROLINA.....................

.........EASTERN SC.........

CITY           SKY/WX    TMP DP  RH WIND       PRES   REMARKS
CHARLESTON     PTSUNNY   67  48  50 CALM      30.06F
BEAUFORT MCAS  MOSUNNY   66  50  56 CALM      30.08R
HILTON HEAD    NOT AVBL

.........CENTRAL SC.........

CITY           SKY/WX    TMP DP  RH WIND       PRES   REMARKS
COLUMBIA       MOSUNNY   65  44  46 NE5       30.07F
ORANGEBURG     SUNNY     65  45  48 CALM      30.07F
SUMTER SHAW    SUNNY     65  44  47 E5        30.06F

.........WESTERN SC.........

CITY           SKY/WX    TMP DP  RH WIND       PRES   REMARKS
GREENVILLE     NOT AVBL
ROCK HILL      MOSUNNY   62  43  49 CALM      30.09F
ANDERSON       PTSUNNY   61  43  51 SE5       30.10R
CLEMSON        NOT AVBL
GREENWOOD      MOSUNNY   62  44  51 SE5       30.10S


...................COASTAL AND OFFSHORE REPORTS..................

................LOCAL PIERS AND NC RESERVE................


STATION/POSITION TIME  SKY/WX   TEMP    WIND        PRES    VSBY
                                AIR SEA DIR/SP/G
                 (UTC)          (F)     (DEG/KT/KT) (MB)    (MI)
JOHNY MRCER PIER 1600            62 72  360/  4/  6 1016.9F
NC RESRV MASNBRO 1500            61      10/  2     1017.0S
OCEAN CREST PIER 1600            63 69   30/  7/  9 1016.8S
SPRINGMAID  PIER 1600            62 69   70/  4/  5 1018.0S


................COASTAL AND OFFSHORE BUOYS................


STATION/POSITION TIME  SKY/WX   TEMP    WIND        PRES    VSBY
                                AIR SEA DIR/SP/G
                 (UTC)          (F)     (DEG/KT/KT) (MB)    (MI)
DIMNDSHOAL 41025 1500            62     310/ 14/ 17 1016.0R
WVE H/P(F/S)=  4/ 9 WND WVE H/P(F/S)=  3/ 6 SWL H/P/D(F/S/D)=  2/ 30/ 9

CAPE LOOKOUT     1500            62     340/  7/  9 1016.9R
ONSLOW BAY 41036 1600            64 75   10/ 10/ 12 1016.8R
WVE H/P(F/S)=  3/10 WND WVE H/P(F/S)=  2/ 4 SWL H/P/D(F/S/D)=  3/ 90/10

5 WRITEBCH 41038 1600            60 72   10/  6/  8   N/A
MASONBORO  41110 1600               72                N/A
WVE H/P(F/S)=  3/10 WND WVE H/P(F/S)=  2/10 SWL H/P/D(F/S/D)=  2/ 90/11

WILM HARBR 41108 1600               71                N/A
WVE H/P(F/S)=  2/11 WND WVE H/P(F/S)=  2/ 9

27WRITEBCH 41037 1500            62 74   50/ 10/ 12 1017.1S
FRYING PAN 41013 1600            65 73   20/  6/ 10 1018.2R
WVE H/P(F/S)=  3/11 WND WVE H/P(F/S)=  2/ 4 SWL H/P/D(F/S/D)=  2/100/11

SUNST NRSH 41024 1500            62      30/  6/  6 1017.3R
CAPRS NRSH 41029 NOT AVBL
EDISTO     41004 1600            69 78  360/  8/ 10 1017.1F
WVE H/P(F/S)=  3/11 WND WVE H/P(F/S)=  2/ 4 SWL H/P/D(F/S/D)=  3/11



..........OFFSHORE BUOYS BEYOND 100 NM OFFSHORE...........
.....IN A TRIANGLE---HAT TO BERMUDA TO BAHAMAS TO HAT.....


STATION/POSITION TIME  SKY/WX   TEMP    WIND        PRES    VSBY
                                AIR SEA DIR/SP/G
                 (UTC)          (F)     (DEG/KT/KT) (MB)    (MI)
150E HAT   41001 NOT AVBL
W BERMUDA  41048 1528            75 79  260/ 14/ 17 1013.6S
WVE H/P(F/S)=  9/10 WND WVE H/P(F/S)=  5/ 6 SWL H/P/D(F/S/D)=  8/350/10

ATLANTIC S 41049 1511            82 81  210/ 12/ 14 1014.3F
WVE H/P(F/S)=  4/ 8 WND WVE H/P(F/S)=  2/ 3 SWL H/P/D(F/S/D)=  3/320/ 8

E BAHAMAS  41046 1548            83 84  170/ 14/ 16 1013.2F
WVE H/P(F/S)=  3/ 8 WND WVE H/P(F/S)=  2/ 4 SWL H/P/D(F/S/D)=  2/ 70/ 8

NE BAHAMAS 41047 1519            78 82   80/ 12/ 14 1014.3F
WVE H/P(F/S)=  6/11 WND WVE H/P(F/S)=  2/ 5 SWL H/P/D(F/S/D)=  5/340/11

120E CANVRL41010 1600            74 81   70/ 12/ 14 1016.0F
WVE H/P(F/S)=  3/11 WND WVE H/P(F/S)=  2/ 3 SWL H/P/D(F/S/D)=  2/ 40/11


END



USA.gov is the U.S. government's official web portal to all federal, state and local government web resources and services.